| time (UTC) | temp F | wind direction | speed MPH | gust MPH | rain 1hr in | rain 24hr in | rain mn in | humidity % | barometer mb |
| 20260505041025 | 65 | 178 | 11.0 | 13.0 | 0.00 | 0.00 | 0.00 | 65 | 1005.4 |
| 20260505040029 | 65 | 183 | 10.0 | 16.0 | 0.00 | 0.00 | 0.00 | 65 | 1005.4 |
| 20260505035016 | 65 | 200 | 10.0 | 12.0 | 0.00 | 0.00 | 0.00 | 65 | 1005.4 |
| 20260505034021 | 65 | 193 | 10.0 | 13.0 | 0.00 | 0.00 | 0.00 | 65 | 1005.4 |
| 20260505033025 | 65 | 185 | 9.0 | 13.0 | 0.00 | 0.00 | 0.00 | 65 | 1005.4 |
| 20260505032029 | 65 | 195 | 8.0 | 11.0 | 0.00 | 0.00 | 0.00 | 65 | 1005.2 |
| 20260505031015 | 65 | 185 | 9.0 | 11.0 | 0.00 | 0.00 | 0.00 | 65 | 1005.4 |
| 20260505030019 | 65 | 182 | 8.0 | 9.0 | 0.00 | 0.00 | 0.00 | 66 | 1005.5 |
| 20260505025024 | 66 | 201 | 11.0 | 16.0 | 0.00 | 0.00 | 0.00 | 63 | 1005.4 |
| 20260505024043 | 66 | 197 | 11.0 | 15.0 | 0.00 | 0.00 | 0.00 | 63 | 1005.3 |
| 20260505023021 | 66 | 188 | 9.0 | 12.0 | 0.00 | 0.00 | 0.00 | 63 | 1005.2 |
| 20260505022019 | 66 | 184 | 10.0 | 13.0 | 0.00 | 0.00 | 0.00 | 63 | 1005.4 |
| 20260505021017 | 66 | 193 | 10.0 | 16.0 | 0.00 | 0.00 | 0.00 | 63 | 1005.4 |
| 20260505020015 | 67 | 197 | 10.0 | 13.0 | 0.00 | 0.00 | 0.00 | 62 | 1005.2 |
| 20260505015032 | 66 | 202 | 9.0 | 10.0 | 0.00 | 0.00 | 0.00 | 64 | 1005.2 |
| 20260505014018 | 66 | 194 | 9.0 | 11.0 | 0.00 | 0.00 | 0.00 | 63 | 1005.1 |
| 20260505013023 | 66 | 193 | 8.0 | 10.0 | 0.00 | 0.00 | 0.00 | 64 | 1005.0 |
| 20260505012027 | 66 | 203 | 8.0 | 12.0 | 0.00 | 0.00 | 0.00 | 64 | 1004.8 |
| 20260505011031 | 66 | 193 | 7.0 | 9.0 | 0.00 | 0.00 | 0.00 | 64 | 1004.7 |
| 20260505010017 | 66 | 177 | 7.0 | 10.0 | 0.00 | 0.00 | 0.00 | 64 | 1004.5 |
| 20260505005021 | 66 | 180 | 7.0 | 9.0 | 0.00 | 0.00 | 0.00 | 65 | 1004.6 |
| 20260505004026 | 66 | 200 | 7.0 | 9.0 | 0.00 | 0.00 | 0.00 | 66 | 1004.5 |
| 20260505003031 | 66 | 203 | 7.0 | 10.0 | 0.00 | 0.00 | 0.00 | 68 | 1004.4 |
| 20260505002016 | 65 | 180 | 6.0 | 9.0 | 0.00 | 0.00 | 0.00 | 70 | 1004.4 |
| 20260505001041 | 64 | 167 | 4.0 | 6.0 | 0.00 | 0.00 | 0.00 | 73 | 1004.4 |
| 20260505000025 | 64 | 175 | 3.0 | 5.0 | 0.00 | 0.00 | 0.00 | 75 | 1004.2 |
| 20260504235029 | 63 | 138 | 4.0 | 5.0 | 0.00 | 0.00 | 0.00 | 76 | 1004.5 |
| 20260504234057 | 63 | 145 | 3.0 | 4.0 | 0.00 | 0.00 | 0.00 | 79 | 1004.5 |
| 20260504233020 | 64 | 197 | 3.0 | 4.0 | 0.00 | 0.00 | 0.00 | 74 | 1004.5 |
| 20260504232024 | 64 | 208 | 8.0 | 9.0 | 0.00 | 0.00 | 0.00 | 71 | 1004.7 |
| 20260504231028 | 69 | 208 | 15.0 | 21.0 | 0.00 | 0.00 | 0.00 | 60 | 1004.4 |
| 20260504230015 | 71 | 194 | 9.0 | 16.0 | 0.00 | 0.00 | 0.00 | 56 | 1004.6 |
| 20260504225019 | 71 | 191 | 10.0 | 15.0 | 0.00 | 0.00 | 0.00 | 55 | 1004.9 |
| 20260504224024 | 70 | 206 | 10.0 | 15.0 | 0.00 | 0.00 | 0.00 | 56 | 1005.0 |
| 20260504223027 | 71 | 205 | 11.0 | 14.0 | 0.00 | 0.00 | 0.00 | 55 | 1005.0 |
| 20260504222032 | 71 | 183 | 9.0 | 11.0 | 0.00 | 0.00 | 0.00 | 54 | 1005.0 |
| 20260504221058 | 71 | 200 | 12.0 | 15.0 | 0.00 | 0.00 | 0.00 | 52 | 1005.0 |
| 20260504220042 | 71 | 193 | 13.0 | 17.0 | 0.00 | 0.00 | 0.00 | 51 | 1005.0 |
| 20260504215026 | 72 | 214 | 16.0 | 21.0 | 0.00 | 0.00 | 0.00 | 49 | 1005.1 |
| 20260504214031 | 73 | 210 | 14.0 | 21.0 | 0.00 | 0.00 | 0.00 | 49 | 1005.2 |
| 20260504213037 | 73 | 212 | 14.0 | 23.0 | 0.00 | 0.00 | 0.00 | 48 | 1005.2 |
| 20260504212022 | 73 | 201 | 14.0 | 19.0 | 0.00 | 0.00 | 0.00 | 47 | 1005.2 |
| 20260504211026 | 72 | 209 | 17.0 | 22.0 | 0.00 | 0.00 | 0.00 | 45 | 1005.2 |
| 20260504210024 | 72 | 215 | 16.0 | 22.0 | 0.00 | 0.00 | 0.00 | 46 | 1005.2 |
| 20260504205016 | 0 | 0.0 | 0.0 | 0.00 | 0.00 | 0.00 | 1005.5 | ||
| 20260504204021 | 0 | 0.0 | 0.0 | 0.00 | 0.00 | 0.00 | 1005.5 | ||
| 20260504203039 | 0 | 0.0 | 0.0 | 0.00 | 0.00 | 0.00 | 1005.5 | ||
| 20260504202018 | 0 | 0.0 | 0.0 | 0.00 | 0.00 | 0.00 | 1005.5 | ||
| 20260504201036 | 0 | 0.0 | 0.0 | 0.00 | 0.00 | 0.00 | 1005.4 | ||
| 20260504200021 | 0 | 0.0 | 0.0 | 0.00 | 0.00 | 0.00 | 1005.7 | ||
| 20260504195045 | 0 | 0.0 | 0.0 | 0.00 | 0.00 | 0.00 | 1005.9 | ||
| 20260504194029 | 0 | 0.0 | 0.0 | 0.00 | 0.00 | 0.00 | 1006.0 | ||
| 20260504193015 | 0 | 0.0 | 0.0 | 0.00 | 0.00 | 0.00 | 1006.2 | ||
| 20260504192020 | 0 | 0.0 | 0.0 | 0.00 | 0.00 | 0.00 | 1006.2 | ||
| 20260504191024 | 74 | 217 | 10.0 | 15.0 | 0.00 | 0.00 | 0.00 | 41 | 1006.4 |
| 20260504190028 | 74 | 211 | 13.0 | 17.0 | 0.00 | 0.00 | 0.00 | 41 | 1006.2 |
| 20260504185032 | 73 | 190 | 11.0 | 15.0 | 0.00 | 0.00 | 0.00 | 43 | 1006.6 |
| 20260504184019 | 73 | 211 | 11.0 | 17.0 | 0.00 | 0.00 | 0.00 | 44 | 1006.6 |
| 20260504183023 | 73 | 206 | 12.0 | 15.0 | 0.00 | 0.00 | 0.00 | 46 | 1006.7 |
| 20260504182028 | 73 | 207 | 15.0 | 21.0 | 0.00 | 0.00 | 0.00 | 46 | 1006.7 |
| 20260504181032 | 72 | 176 | 12.0 | 14.0 | 0.00 | 0.00 | 0.00 | 47 | 1006.9 |
| 20260504180018 | 71 | 191 | 13.0 | 17.0 | 0.00 | 0.00 | 0.00 | 47 | 1007.0 |
| 20260504175043 | 71 | 198 | 13.0 | 16.0 | 0.00 | 0.00 | 0.00 | 49 | 1007.1 |
| 20260504174027 | 71 | 196 | 9.0 | 12.0 | 0.00 | 0.00 | 0.00 | 49 | 1007.2 |
| 20260504173031 | 70 | 203 | 11.0 | 16.0 | 0.00 | 0.00 | 0.00 | 50 | 1007.3 |
| 20260504172058 | 70 | 196 | 13.0 | 18.0 | 0.00 | 0.00 | 0.00 | 51 | 1007.4 |
| 20260504171022 | 69 | 174 | 13.0 | 19.0 | 0.00 | 0.00 | 0.00 | 50 | 1007.5 |
| 20260504151019 | 64 | 185 | 9.0 | 15.0 | 0.00 | 0.00 | 0.00 | 57 | 1008.7 |
| 20260504141015 | 61 | 196 | 9.0 | 11.0 | 0.00 | 0.00 | 0.00 | 61 | 1009.0 |
| 20260504081015 | 49 | 170 | 7.0 | 9.0 | 0.00 | 0.00 | 0.00 | 67 | 1010.0 |